TimeCST,TemperatureF,Dew PointF,Humidity,Sea Level PressureIn,VisibilityMPH,Wind Direction,Wind SpeedMPH,Gust SpeedMPH,PrecipitationIn,Events,Conditions,WindDirDegrees,DateUTC
12:54 AM,50.0,45.0,83,29.96,10.0,South,8.1,-,N/A,,Clear,170,2012-12-19 06:54:00
1:54 AM,48.9,44.1,83,29.96,10.0,South,8.1,-,N/A,,Clear,180,2012-12-19 07:54:00
2:54 AM,48.0,44.1,86,29.96,10.0,South,6.9,-,N/A,,Clear,170,2012-12-19 08:54:00
3:54 AM,46.0,43.0,89,29.96,10.0,South,5.8,-,N/A,,Clear,170,2012-12-19 09:54:00
4:54 AM,45.0,42.1,90,29.97,10.0,South,4.6,-,N/A,,Clear,170,2012-12-19 10:54:00
5:54 AM,44.1,41.0,89,29.98,10.0,South,5.8,-,N/A,,Clear,170,2012-12-19 11:54:00
6:54 AM,44.1,41.0,89,29.99,10.0,South,6.9,-,N/A,,Clear,180,2012-12-19 12:54:00
7:54 AM,50.0,46.0,86,30.00,10.0,South,5.8,-,N/A,,Clear,170,2012-12-19 13:54:00
8:54 AM,55.9,48.9,77,30.01,10.0,South,10.4,-,N/A,,Clear,170,2012-12-19 14:54:00
9:54 AM,64.0,51.1,63,30.01,10.0,South,15.0,23.0,N/A,,Clear,190,2012-12-19 15:54:00
10:54 AM,68.0,46.9,47,29.99,10.0,South,18.4,27.6,N/A,,Clear,180,2012-12-19 16:54:00
11:54 AM,71.1,46.0,41,29.93,10.0,South,17.3,25.3,N/A,,Clear,170,2012-12-19 17:54:00
12:54 PM,73.9,46.9,38,29.91,10.0,South,12.7,-,N/A,,Clear,180,2012-12-19 18:54:00
1:54 PM,75.0,46.9,37,29.89,10.0,South,13.8,18.4,N/A,,Clear,180,2012-12-19 19:54:00
2:54 PM,73.9,48.9,41,29.88,10.0,SSE,11.5,-,N/A,,Clear,160,2012-12-19 20:54:00
3:54 PM,71.1,50.0,47,29.88,10.0,SSE,11.5,-,N/A,,Clear,160,2012-12-19 21:54:00
4:54 PM,66.9,51.1,57,29.87,10.0,SSE,10.4,-,N/A,,Clear,150,2012-12-19 22:54:00
5:54 PM,64.0,51.1,63,29.88,10.0,SSE,8.1,-,N/A,,Mostly Cloudy,160,2012-12-19 23:54:00
6:54 PM,66.0,51.1,59,29.88,10.0,SSE,13.8,-,N/A,,Overcast,150,2012-12-20 00:54:00
7:54 PM,66.0,55.0,68,29.86,10.0,SSE,15.0,-,N/A,,Mostly Cloudy,160,2012-12-20 01:54:00
8:54 PM,64.9,57.0,75,29.86,10.0,SSE,13.8,-,N/A,,Scattered Clouds,160,2012-12-20 02:54:00
9:43 PM,64.4,57.2,77,29.85,10.0,SSE,13.8,-,N/A,,Overcast,150,2012-12-20 03:43:00
9:54 PM,66.0,59.0,78,29.84,10.0,SSE,12.7,20.7,N/A,,Overcast,160,2012-12-20 03:54:00
10:54 PM,64.0,61.0,90,29.79,10.0,SSE,18.4,-,0.00,Rain,Light Rain,150,2012-12-20 04:54:00
11:15 PM,64.4,60.8,88,29.80,10.0,SSE,19.6,-,N/A,,Overcast,150,2012-12-20 05:15:00
11:41 PM,64.4,60.8,88,29.81,10.0,SSE,16.1,-,N/A,,Overcast,160,2012-12-20 05:41:00
11:54 PM,64.0,62.1,93,29.79,9.0,SSE,17.3,28.8,N/A,,Overcast,160,2012-12-20 05:54:00